This is the latest recevied weather packets stored in our database for station/object W6SNO-1. If no packets are shown the sender has not sent any weather packets the latest 10 day(s).
| Time | Temp. | Humidity | Pressure | Rain* | Wind** | Luminosity | Snow |
|---|---|---|---|---|---|---|---|
| 1777944321 | 15.56° C | 66% | 1014.5 hPa | 0 mm | - | 50 W/m² | - |
| 1777944018 | 15.56° C | 66% | 1014.8 hPa | 0 mm | - | 50 W/m² | - |
| 1777943714 | 15.56° C | 66% | 1014.5 hPa | 0 mm | - | 45 W/m² | - |
| 1777943411 | 15.56° C | 66% | 1014.7 hPa | 0 mm | - | 58 W/m² | - |
| 1777943106 | 16.11° C | 64% | 1014.6 hPa | 0 mm | - | 86 W/m² | - |
| 1777942803 | 16.11° C | 64% | 1014.8 hPa | 0 mm | - | 114 W/m² | - |
| 1777942499 | 16.11° C | 65% | 1014.8 hPa | 0 mm | - | 155 W/m² | - |
| 1777942198 | 16.11° C | 65% | 1014.8 hPa | 0 mm | - | 158 W/m² | - |
| 1777941894 | 16.11° C | 66% | 1014.9 hPa | 0 mm | - | 163 W/m² | - |
| 1777941591 | 15.56° C | 66% | 1014.9 hPa | 0 mm | - | 116 W/m² | - |
| 1777941288 | 15.56° C | 66% | 1015 hPa | 0 mm | - | 85 W/m² | - |
| 1777940984 | 16.11° C | 67% | 1015 hPa | 0 mm | - | 92 W/m² | - |
| 1777940680 | 16.11° C | 66% | 1014.7 hPa | 0 mm | - | 72 W/m² | - |
| 1777940379 | 16.11° C | 66% | 1014.8 hPa | 0 mm | - | 40 W/m² | - |
| 1777940076 | 16.67° C | 64% | 1014.8 hPa | 0 mm | - | 77 W/m² | - |
| 1777939773 | 16.67° C | 64% | 1014.7 hPa | 0 mm | - | 125 W/m² | - |
| 1777939471 | 17.78° C | 63% | 1014.7 hPa | 0 mm | - | 179 W/m² | - |
| 1777939167 | 17.22° C | 64% | 1014.3 hPa | 0 mm | - | 396 W/m² | - |
| 1777938865 | 17.22° C | 64% | 1014.6 hPa | 0 mm | - | 225 W/m² | - |
| 1777938561 | 16.11° C | 66% | 1014.6 hPa | 0 mm | - | 570 W/m² | - |
| 1777938259 | 16.67° C | 66% | 1014.6 hPa | 0 mm | - | 116 W/m² | - |
| 1777937955 | 16.67° C | 65% | 1014.6 hPa | 0 mm | - | 121 W/m² | - |
| 1777937651 | 16.67° C | 63% | 1014.6 hPa | 0 mm | - | 150 W/m² | - |
| 1777937348 | 16.11° C | 65% | 1014.7 hPa | 0 mm | - | 266 W/m² | - |
| 1777937045 | 16.11° C | 64% | 1014.5 hPa | 0 mm | - | 127 W/m² | - |
* Rain latest hour (hover to see other rain measurements)
** Current wind speed in m/s (hover to see current wind gust speed)